Location: Pine Mountain Observatory
(43.7910°N, 120.9377°W)
Time: 07:47:04
(UTC-08:00)

ISS - Visible Passes

Search period start: 24 February 2018 00:00
Search period end: 06 March 2018 00:00
Orbit: 402 x 407 km, 51.6° (Epoch: 25 February)

Date Brightness Start Highest point End Pass type
(mag) Time Alt. Az. Time Alt. Az. Time Alt. Az.
25 Feb -1.0 05:56:56 10° S 05:59:12 18° SE 06:01:28 10° E visible
27 Feb -2.5 05:47:51 10° SSW 05:50:55 39° SE 05:54:00 10° ENE visible
28 Feb -1.6 04:57:12 15° S 04:58:47 22° SE 05:01:22 10° E visible
01 Mar -0.6 04:07:28 11° ESE 04:07:28 11° ESE 04:08:03 10° ESE visible
01 Mar -3.9 05:40:08 15° WSW 05:42:44 89° SSE 05:46:01 10° ENE visible
02 Mar -3.2 04:50:14 47° SSE 04:50:28 49° SE 04:53:39 10° ENE visible
03 Mar -0.8 04:00:11 16° E 04:00:11 16° E 04:01:06 10° ENE visible
03 Mar -3.3 05:32:51 22° W 05:34:38 46° NNW 05:37:48 10° NE visible
04 Mar -3.5 04:42:42 61° NNE 04:42:42 61° NNE 04:45:32 10° NE visible
05 Mar -0.7 03:52:29 15° ENE 03:52:29 15° ENE 03:53:10 10° ENE visible
05 Mar -2.5 05:25:08 20° WNW 05:26:36 29° NNW 05:29:31 10° NE visible
